EW3591 Weather Reports


Display with metric or nautical units.
time (UTC)temp
F
wind
direction
speed
MPH
gust
MPH
rain 1hr
in
rain 24hr
in
rain mn
in
humidity
%
barometer
mb
20260903182506 84 153 1.0 5.0 0.00 0.30 0.00 75 1013.5
20260903182307 84 331 1.0 5.0 0.00 0.30 0.00 75 1013.5
20260903182106 85 290 1.0 5.0 0.00 0.30 0.00 74 1013.5
20260903181905 85 152 1.0 5.0 0.00 0.30 0.00 75 1013.5
20260903181705 85 221 2.0 5.0 0.00 0.30 0.00 75 1013.4
20260903181505 85 232 2.0 5.0 0.00 0.30 0.00 74 1013.4
20260903181305 85 133 1.0 11.0 0.00 0.30 0.00 75 1013.4
20260903181104 85 126 2.0 11.0 0.00 0.30 0.00 74 1013.4
20260903180904 85 105 2.0 11.0 0.00 0.30 0.00 74 1013.4
20260903180704 85 194 3.0 11.0 0.00 0.30 0.00 73 1013.4
20260903180503 85 194 3.0 11.0 0.00 0.30 0.00 73 1013.5
20260903180303 85 190 4.0 9.0 0.00 0.30 0.00 73 1013.5
20260903175902 85 322 2.0 6.0 0.00 0.30 0.00 73 1013.5
20260903175702 85 283 2.0 6.0 0.00 0.30 0.00 73 1013.5
20260903175502 85 296 1.0 6.0 0.00 0.30 0.00 74 1013.5
20260903175301 85 52 2.0 6.0 0.00 0.30 0.00 74 1013.4
20260903175101 85 68 1.0 6.0 0.00 0.30 0.00 75 1013.5
20260903174901 85 190 2.0 6.0 0.00 0.30 0.00 75 1013.6
20260903174700 85 234 1.0 5.0 0.00 0.30 0.00 75 1013.5
20260903174500 85 233 1.0 5.0 0.00 0.30 0.00 76 1013.5
20260903174300 85 233 1.0 6.0 0.00 0.30 0.00 74 1013.5
20260903174059 85 65 2.0 6.0 0.00 0.30 0.00 73 1013.6
20260903173859 85 140 2.0 6.0 0.00 0.30 0.00 74 1013.6
20260903173659 85 176 2.0 6.0 0.00 0.30 0.00 75 1013.5
20260903173459 85 203 3.0 6.0 0.00 0.30 0.00 74 1013.5
20260903173258 85 273 2.0 5.0 0.00 0.30 0.00 74 1013.5
20260903173058 85 317 1.0 5.0 0.00 0.30 0.00 74 1013.4
20260903172858 85 224 0.0 5.0 0.00 0.30 0.00 75 1013.4
20260903172657 85 220 1.0 5.0 0.00 0.30 0.00 75 1013.6
20260903172457 85 179 2.0 5.0 0.00 0.30 0.00 74 1013.6
20260903172257 85 218 2.0 6.0 0.00 0.30 0.00 74 1013.6
20260903172056 85 226 2.0 6.0 0.00 0.30 0.00 74 1013.5
20260903171856 85 213 2.0 6.0 0.00 0.30 0.00 74 1013.5
20260903171656 85 202 2.0 6.0 0.00 0.30 0.00 74 1013.6
20260903171455 85 171 2.0 6.0 0.00 0.30 0.00 74 1013.6
20260903171255 85 220 2.0 4.0 0.00 0.30 0.00 73 1013.6
20260903171055 85 239 2.0 4.0 0.00 0.30 0.00 74 1013.6
20260903170855 85 154 1.0 4.0 0.00 0.30 0.00 74 1013.7
20260903170654 85 182 1.0 4.0 0.00 0.30 0.00 74 1013.7
20260903170454 85 198 1.0 4.0 0.00 0.30 0.00 75 1013.7
20260903170254 84 165 1.0 4.0 0.00 0.30 0.00 75 1013.8
20260903170053 84 124 1.0 6.0 0.00 0.30 0.00 75 1013.8
20260903165853 85 114 2.0 6.0 0.00 0.30 0.00 74 1013.9
20260903165653 85 222 2.0 6.0 0.00 0.30 0.00 74 1013.9
20260903165452 85 194 3.0 6.0 0.00 0.30 0.00 75 1013.9
20260903165252 85 207 2.0 6.0 0.00 0.30 0.00 75 1013.8
20260903165052 85 195 1.0 5.0 0.00 0.30 0.00 76 1013.8
20260903164851 85 240 2.0 5.0 0.00 0.30 0.00 76 1013.8
20260903164651 85 241 1.0 6.0 0.00 0.30 0.00 77 1013.8
20260903164451 85 133 1.0 6.0 0.00 0.30 0.00 76 1013.8
20260903164250 84 216 2.0 6.0 0.00 0.30 0.00 76 1013.9
20260903164050 84 247 2.0 6.0 0.00 0.30 0.00 76 1013.9
20260903163850 84 236 1.0 6.0 0.00 0.30 0.00 77 1013.9
20260903163650 84 229 2.0 5.0 0.00 0.30 0.00 78 1014.0
20260903163449 84 213 2.0 5.0 0.00 0.30 0.00 78 1013.9
20260903163249 84 205 2.0 5.0 0.00 0.30 0.00 78 1013.9
20260903163049 84 221 2.0 5.0 0.00 0.30 0.00 78 1013.9
20260903162848 84 213 2.0 5.0 0.00 0.30 0.00 78 1013.9
20260903162648 84 231 1.0 5.0 0.00 0.30 0.00 78 1013.8
20260903162448 84 219 2.0 5.0 0.00 0.30 0.00 78 1013.7
20260903162247 84 237 2.0 5.0 0.00 0.30 0.00 77 1013.7
20260903162047 84 188 1.0 5.0 0.00 0.30 0.00 77 1013.8
20260903161847 84 177 2.0 5.0 0.00 0.30 0.00 77 1013.9
20260903161646 84 194 2.0 5.0 0.00 0.30 0.00 78 1013.7
20260903161446 84 222 2.0 5.0 0.00 0.30 0.00 78 1013.7
20260903161246 84 245 1.0 6.0 0.00 0.30 0.00 79 1013.7
20260903161045 83 245 1.0 6.0 0.00 0.30 0.00 79 1013.8
20260903160845 83 227 1.0 6.0 0.00 0.30 0.00 79 1013.9
20260903160645 83 231 2.0 6.0 0.00 0.30 0.00 79 1013.9
20260903160445 83 245 2.0 6.0 0.00 0.30 0.00 80 1013.9
20260903160244 82 250 1.0 5.0 0.00 0.30 0.00 80 1013.9
20260903160044 82 200 2.0 5.0 0.00 0.30 0.00 80 1013.9
20260903155844 82 157 2.0 5.0 0.00 0.35 0.00 80 1013.9
20260903155643 83 231 2.0 5.0 0.00 0.35 0.00 80 1014.0
20260903155443 83 265 1.0 5.0 0.00 0.35 0.00 80 1014.0
20260903155243 83 228 2.0 5.0 0.00 0.35 0.00 79 1014.0
20260903155042 83 246 1.0 5.0 0.00 0.35 0.00 80 1014.1
20260903154842 82 227 1.0 5.0 0.00 0.35 0.00 80 1014.1
20260903154642 82 227 2.0 5.0 0.00 0.35 0.00 80 1014.1
20260903154442 82 219 2.0 5.0 0.00 0.35 0.00 80 1014.1
20260903154241 82 234 2.0 4.0 0.00 0.35 0.00 80 1014.1
20260903154041 82 265 1.0 6.0 0.00 0.35 0.00 79 1014.1
20260903153841 82 241 1.0 6.0 0.00 0.35 0.00 78 1014.1
20260903153640 82 225 1.0 6.0 0.00 0.35 0.00 78 1014.1
20260903153440 82 238 2.0 6.0 0.00 0.35 0.00 79 1014.2
20260903153240 82 223 3.0 6.0 0.00 0.35 0.00 79 1014.1
20260903153039 82 239 2.0 6.0 0.00 0.35 0.00 79 1014.1
20260903152839 82 242 2.0 5.0 0.00 0.35 0.00 80 1014.1
20260903152639 82 243 1.0 4.0 0.00 0.35 0.00 80 1014.0
20260903152438 82 234 1.0 4.0 0.00 0.35 0.00 81 1014.0
20260903152238 81 236 1.0 4.0 0.00 0.35 0.00 81 1013.9
20260903152038 81 231 2.0 4.0 0.00 0.35 0.00 82 1013.9
20260903151837 81 232 2.0 4.0 0.00 0.35 0.00 81 1014.0
20260903151637 81 234 1.0 4.0 0.00 0.35 0.00 82 1014.1
20260903151437 81 224 0.0 5.0 0.00 0.35 0.00 82 1014.1
20260903151236 80 227 1.0 6.0 0.00 0.35 0.00 82 1014.1
20260903151036 80 224 2.0 6.0 0.00 0.35 0.00 81 1014.1
20260903150836 80 211 2.0 6.0 0.00 0.35 0.00 81 1014.1
20260903150636 81 213 2.0 6.0 0.00 0.35 0.00 80 1014.2
20260903150435 81 233 2.0 6.0 0.00 0.35 0.00 81 1014.2
20260903150235 81 228 2.0 5.0 0.00 0.35 0.00 81 1014.1
20260903150035 80 239 0.0 4.0 0.00 0.35 0.00 82 1014.2
20260903145834 80 202 1.0 4.0 0.00 0.35 0.00 82 1014.2
20260903145634 80 188 1.0 4.0 0.00 0.35 0.00 82 1014.2
20260903145434 80 183 1.0 4.0 0.00 0.35 0.00 82 1014.2
20260903145233 80 209 1.0 5.0 0.00 0.35 0.00 82 1014.2
20260903145033 80 201 1.0 5.0 0.00 0.35 0.00 82 1014.1
20260903144833 80 226 1.0 5.0 0.00 0.35 0.00 83 1014.1
20260903144632 79 224 2.0 5.0 0.00 0.35 0.00 83 1014.2
20260903144432 79 217 1.0 4.0 0.00 0.35 0.00 84 1014.2
20260903144232 79 187 1.0 4.0 0.00 0.35 0.00 84 1014.2
20260903144031 78 183 0.0 4.0 0.00 0.35 0.00 84 1014.2
20260903143831 78 195 0.0 4.0 0.00 0.35 0.00 84 1014.1
20260903143631 78 191 1.0 4.0 0.00 0.35 0.00 84 1014.1
20260903143431 77 211 1.0 4.0 0.00 0.35 0.00 85 1014.1
20260903143230 77 223 2.0 4.0 0.00 0.35 0.00 84 1014.1
20260903143030 77 212 2.0 4.0 0.00 0.35 0.00 85 1014.1
20260903142830 77 244 1.0 4.0 0.00 0.35 0.00 86 1014.1
20260903142629 77 248 1.0 4.0 0.00 0.35 0.00 86 1014.1
20260903142429 77 195 1.0 4.0 0.00 0.35 0.00 87 1014.1
20260903142229 76 214 0.0 3.0 0.00 0.35 0.00 87 1014.1
20260903142028 76 214 0.0 3.0 0.00 0.35 0.00 87 1014.0
20260903141828 76 214 0.0 3.0 0.00 0.35 0.00 87 1014.0
20260903141628 76 214 1.0 3.0 0.00 0.35 0.00 86 1014.0
20260903141427 76 210 1.0 4.0 0.00 0.35 0.00 87 1014.1
20260903141227 76 184 1.0 4.0 0.00 0.35 0.00 87 1014.1
20260903141027 76 184 0.0 5.0 0.00 0.35 0.00 87 1014.1
20260903140826 75 192 2.0 5.0 0.00 0.35 0.00 87 1014.0
20260903140626 75 209 2.0 5.0 0.00 0.35 0.00 87 1014.0
20260903140426 75 209 2.0 5.0 0.00 0.35 0.00 88 1014.0
20260903140226 76 192 2.0 5.0 0.00 0.35 0.00 88 1013.9
20260903140025 76 189 2.0 5.0 0.00 0.35 0.00 87 1014.0
20260903135825 76 172 1.0 4.0 0.00 0.35 0.00 87 1014.1
20260903135625 76 171 0.0 2.0 0.00 0.35 0.00 87 1014.1
20260903135424 76 171 0.0 1.0 0.00 0.35 0.00 87 1014.1
20260903135224 76 171 0.0 4.0 0.00 0.35 0.00 87 1014.1
20260903135024 75 171 0.0 4.0 0.00 0.35 0.00 87 1014.1
20260903134823 75 171 0.0 4.0 0.00 0.35 0.00 88 1014.2
20260903134623 75 179 0.0 4.0 0.00 0.35 0.00 88 1014.3
20260903134423 75 201 1.0 4.0 0.00 0.35 0.00 88 1014.2
20260903134222 75 212 1.0 3.0 0.00 0.35 0.00 88 1014.2
20260903134022 75 213 1.0 3.0 0.00 0.35 0.00 88 1014.3
20260903133822 75 213 1.0 3.0 0.00 0.35 0.00 88 1014.2
20260903133622 75 213 1.0 2.0 0.00 0.35 0.00 88 1014.3
20260903133421 75 213 0.0 2.0 0.00 0.35 0.00 88 1014.3
20260903133221 75 213 0.0 1.0 0.00 0.35 0.00 88 1014.3
20260903133021 75 213 0.0 1.0 0.00 0.35 0.00 88 1014.3
20260903132820 75 213 0.0 1.0 0.00 0.35 0.00 88 1014.3
20260903132620 75 213 0.0 2.0 0.00 0.35 0.00 88 1014.2
20260903132420 75 213 0.0 2.0 0.00 0.35 0.00 88 1014.2
20260903132219 75 213 0.0 2.0 0.00 0.35 0.00 88 1014.2
20260903132019 75 213 0.0 2.0 0.00 0.35 0.00 88 1014.2
20260903131819 75 213 0.0 2.0 0.00 0.35 0.00 88 1014.3
20260903131618 75 213 0.0 2.0 0.00 0.35 0.00 88 1014.3
20260903131418 75 213 0.0 1.0 0.00 0.35 0.00 88 1014.3
20260903131218 75 213 0.0 1.0 0.00 0.35 0.00 89 1014.4
20260903131017 75 213 0.0 2.0 0.00 0.35 0.00 89 1014.4
20260903130817 75 213 0.0 2.0 0.00 0.35 0.00 89 1014.4
20260903130617 75 213 0.0 2.0 0.00 0.35 0.00 89 1014.3
20260903130417 75 213 0.0 2.0 0.00 0.35 0.00 90 1014.3
20260903130216 75 213 0.0 2.0 0.00 0.35 0.00 90 1014.4
20260903130016 75 213 0.0 2.0 0.00 0.35 0.00 90 1014.4
20260903125816 74 213 0.0 1.0 0.00 0.35 0.00 90 1014.4
20260903125615 74 213 0.0 1.0 0.00 0.35 0.00 90 1014.4
20260903125415 74 213 0.0 1.0 0.00 0.35 0.00 91 1014.4
20260903125215 74 213 0.0 1.0 0.00 0.35 0.00 92 1014.5
20260903125014 74 213 0.0 1.0 0.00 0.35 0.00 93 1014.4
20260903124814 73 213 0.0 1.0 0.00 0.35 0.00 93 1014.4
20260903124614 73 213 0.0 1.0 0.00 0.35 0.00 93 1014.4
20260903124413 73 213 0.0 1.0 0.00 0.35 0.00 94 1014.4
20260903124213 73 213 0.0 1.0 0.00 0.35 0.00 94 1014.5
20260903124013 72 213 0.0 1.0 0.00 0.35 0.00 95 1014.5
20260903123813 72 213 0.0 1.0 0.00 0.35 0.00 96 1014.5
20260903123612 72 213 0.0 1.0 0.00 0.35 0.00 97 1014.5
20260903123412 72 213 0.0 1.0 0.00 0.35 0.00 98 1014.5
20260903123212 71 213 0.0 1.0 0.00 0.35 0.00 99 1014.5
20260903123011 71 213 0.0 1.0 0.00 0.35 0.00 99 1014.5
20260903122811 70 213 0.0 1.0 0.00 0.35 0.00 99 1014.5
20260903122611 70 213 0.0 1.0 0.00 0.35 0.00 99 1014.5
20260903122410 70 213 0.0 1.0 0.00 0.35 0.00 99 1014.5
20260903122210 70 213 0.0 1.0 0.00 0.35 0.00 99 1014.5
20260903122010 69 213 0.0 1.0 0.00 0.35 0.00 99 1014.5
20260903121809 69 0 0.0 1.0 0.00 0.35 0.00 100 1014.5
20260903121609 69 213 0.0 1.0 0.00 0.35 0.00 100 1014.4
20260903121409 69 213 0.0 1.0 0.00 0.35 0.00 100 1014.4
20260903121208 69 213 0.0 1.0 0.00 0.35 0.00 100 1014.4
20260903121008 69 213 0.0 1.0 0.00 0.35 0.00 100 1014.4
20260903120808 69 213 0.0 1.0 0.00 0.35 0.00 100 1014.4
20260903120608 69 213 0.0 1.0 0.00 0.35 0.00 100 1014.4
20260903120407 68 213 0.0 1.0 0.00 0.35 0.00 100 1014.4
20260903120207 68 213 0.0 1.0 0.00 0.35 0.00 100 1014.4
20260903120007 68 213 0.0 1.0 0.00 0.35 0.00 100 1014.5
20260903115806 68 213 0.0 1.0 0.00 0.35 0.00 100 1014.5
20260903115606 68 213 0.0 2.0 0.00 0.35 0.00 100 1014.5
20260903115406 68 213 0.0 2.0 0.00 0.35 0.00 100 1014.5
20260903115205 68 213 0.0 2.0 0.00 0.35 0.00 100 1014.6
20260903115005 68 213 0.0 2.0 0.00 0.35 0.00 100 1014.6
20260903114805 68 213 0.0 1.0 0.00 0.35 0.00 100 1014.5
20260903114604 68 213 0.0 1.0 0.00 0.35 0.00 100 1014.5
20260903114404 68 213 0.0 1.0 0.00 0.35 0.00 100 1014.6
20260903114204 68 213 0.0 1.0 0.00 0.35 0.00 100 1014.6
20260903114004 68 213 0.0 3.0 0.00 0.35 0.00 100 1014.5
20260903113803 68 213 0.0 4.0 0.00 0.35 0.00 100 1014.4
20260903113603 68 213 0.0 4.0 0.00 0.35 0.00 100 1014.4
20260903113403 68 213 0.0 4.0 0.00 0.35 0.00 100 1014.5
20260903113202 68 249 1.0 4.0 0.00 0.35 0.00 100 1014.4
20260903113002 68 245 1.0 3.0 0.00 0.35 0.00 100 1014.5
20260903112802 67 242 0.0 5.0 0.00 0.35 0.00 100 1014.4
20260903112601 67 237 1.0 5.0 0.00 0.35 0.00 100 1014.4
20260903112401 67 199 0.0 5.0 0.00 0.35 0.00 100 1014.4
20260903112201 67 226 1.0 5.0 0.00 0.35 0.00 100 1014.4
20260903112000 67 232 1.0 5.0 0.00 0.35 0.00 100 1014.4
20260903111800 67 223 1.0 5.0 0.00 0.35 0.00 100 1014.3
20260903111600 67 229 2.0 5.0 0.00 0.35 0.00 100 1014.4
20260903111359 67 238 2.0 5.0 0.00 0.35 0.00 100 1014.4
20260903111159 67 250 2.0 5.0 0.00 0.35 0.00 99 1014.4
20260903110959 67 217 2.0 5.0 0.00 0.35 0.00 99 1014.3
20260903110759 67 225 1.0 5.0 0.00 0.35 0.00 99 1014.3
20260903110558 67 241 1.0 5.0 0.00 0.35 0.00 99 1014.3
20260903110358 67 238 1.0 5.0 0.00 0.35 0.00 99 1014.3
20260903110158 67 200 0.0 4.0 0.00 0.35 0.00 99 1014.2
20260903105957 67 215 2.0 4.0 0.00 0.35 0.00 99 1014.3
20260903105757 67 214 1.0 4.0 0.00 0.35 0.00 99 1014.2
20260903105557 67 229 1.0 4.0 0.00 0.35 0.00 99 1014.2
20260903105356 67 237 2.0 4.0 0.00 0.35 0.00 99 1014.1
20260903105156 67 227 2.0 4.0 0.00 0.35 0.00 99 1014.1
20260903104956 67 221 2.0 4.0 0.00 0.35 0.00 99 1014.1
20260903104755 67 214 1.0 4.0 0.00 0.35 0.00 99 1014.1
20260903104555 67 193 1.0 4.0 0.00 0.35 0.00 99 1014.0
20260903104355 67 225 1.0 4.0 0.00 0.35 0.00 99 1013.9
20260903104154 67 202 1.0 4.0 0.00 0.35 0.00 99 1014.0
20260903103954 67 237 1.0 3.0 0.00 0.35 0.00 99 1013.9
20260903103754 67 253 0.0 3.0 0.00 0.35 0.00 99 1013.8
20260903103554 67 253 0.0 3.0 0.00 0.35 0.00 99 1013.8
20260903103353 67 0 0.0 3.0 0.00 0.35 0.00 99 1013.8
20260903103153 67 249 0.0 3.0 0.00 0.35 0.00 99 1013.6
20260903102953 67 235 0.0 3.0 0.00 0.35 0.00 99 1013.6
20260903102752 67 230 1.0 3.0 0.00 0.35 0.00 99 1013.6
20260903102552 67 230 0.0 2.0 0.00 0.35 0.00 99 1013.6
20260903102352 67 230 0.0 2.0 0.00 0.35 0.00 99 1013.6
20260903102151 67 230 0.0 2.0 0.00 0.35 0.00 99 1013.6
20260903101951 67 230 0.0 3.0 0.00 0.35 0.00 99 1013.6
20260903101751 67 230 0.0 3.0 0.00 0.35 0.00 99 1013.5
20260903101551 67 230 1.0 3.0 0.00 0.35 0.00 99 1013.5
20260903101350 67 230 1.0 3.0 0.00 0.35 0.00 99 1013.5
20260903101150 67 230 1.0 3.0 0.00 0.35 0.00 99 1013.5
20260903100949 67 230 1.0 3.0 0.00 0.35 0.00 99 1013.5
20260903100749 67 230 1.0 3.0 0.00 0.35 0.00 99 1013.5
20260903100549 67 231 1.0 3.0 0.00 0.35 0.00 99 1013.5
20260903100349 67 222 1.0 3.0 0.00 0.35 0.00 98 1013.5
20260903100148 67 117 1.0 3.0 0.00 0.35 0.00 98 1013.5
20260903095948 67 108 0.0 2.0 0.00 0.35 0.00 98 1013.5
20260903095748 67 108 0.0 2.0 0.00 0.35 0.00 98 1013.4
20260903095547 67 108 0.0 2.0 0.00 0.35 0.00 98 1013.3
20260903095347 67 108 0.0 1.0 0.00 0.35 0.00 98 1013.4
20260903095147 67 0 0.0 1.0 0.00 0.35 0.00 98 1013.4
20260903094946 67 108 0.0 1.0 0.00 0.35 0.00 98 1013.3
20260903094746 67 108 0.0 2.0 0.00 0.35 0.00 98 1013.2
20260903094546 67 108 0.0 2.0 0.00 0.35 0.00 98 1013.2
20260903094345 67 108 0.0 2.0 0.00 0.35 0.00 98 1013.2
20260903094145 67 108 0.0 2.0 0.00 0.35 0.00 98 1013.2
20260903093945 67 108 0.0 2.0 0.00 0.35 0.00 98 1013.1
20260903093745 67 108 0.0 1.0 0.00 0.35 0.00 98 1013.2
20260903093544 67 108 0.0 1.0 0.00 0.35 0.00 98 1013.2
20260903093344 67 108 0.0 1.0 0.00 0.35 0.00 98 1013.2
20260903093144 67 108 0.0 1.0 0.00 0.35 0.00 98 1013.1
20260903092943 67 108 0.0 1.0 0.00 0.35 0.00 98 1013.0
20260903092743 67 108 0.0 1.0 0.00 0.35 0.00 98 1013.0
20260903092543 67 108 0.0 1.0 0.00 0.35 0.00 98 1013.0
20260903092342 68 108 0.0 1.0 0.00 0.35 0.00 98 1013.0
20260903092142 68 108 0.0 1.0 0.00 0.35 0.00 98 1013.0
20260903091942 68 108 0.0 1.0 0.00 0.35 0.00 98 1013.0
20260903091741 68 108 0.0 1.0 0.00 0.35 0.00 98 1013.0
20260903091541 68 108 0.0 1.0 0.00 0.35 0.00 98 1013.0
20260903091341 68 108 0.0 1.0 0.00 0.35 0.00 98 1013.0
20260903091140 68 108 0.0 1.0 0.00 0.35 0.00 98 1013.1
20260903090940 68 108 0.0 1.0 0.00 0.35 0.00 98 1013.0
20260903090740 68 108 0.0 0.0 0.00 0.35 0.00 98 1013.0
20260903090540 68 0 0.0 0.0 0.00 0.35 0.00 98 1013.0
20260903090339 68 108 0.0 2.0 0.00 0.35 0.00 98 1013.0
20260903090139 68 108 0.0 2.0 0.00 0.35 0.00 98 1012.9
20260903085939 68 0 0.0 2.0 0.00 0.35 0.00 98 1013.0
20260903085738 68 108 0.0 3.0 0.00 0.35 0.00 98 1013.1
20260903085538 68 108 0.0 3.0 0.00 0.35 0.00 98 1013.0
20260903085338 68 108 0.0 3.0 0.00 0.35 0.00 98 1013.1
20260903085137 68 108 0.0 3.0 0.00 0.35 0.00 98 1013.0
20260903084937 68 111 0.0 3.0 0.00 0.35 0.00 98 1013.0
20260903084737 68 114 0.0 3.0 0.00 0.35 0.00 98 1013.0
20260903084536 68 133 0.0 3.0 0.00 0.35 0.00 98 1013.0
20260903084336 68 220 0.0 3.0 0.00 0.35 0.00 98 1012.9
20260903084136 68 220 0.0 2.0 0.00 0.35 0.00 98 1013.0
20260903083935 68 220 0.0 2.0 0.00 0.35 0.00 98 1013.0
20260903083735 68 153 0.0 2.0 0.00 0.35 0.00 98 1013.1
20260903083535 68 122 0.0 2.0 0.00 0.35 0.00 98 1013.0
20260903083335 68 122 0.0 2.0 0.00 0.35 0.00 98 1012.9
20260903083134 68 122 0.0 2.0 0.00 0.35 0.00 98 1012.9
20260903082934 68 122 0.0 3.0 0.00 0.35 0.00 98 1012.9
20260903082734 68 119 0.0 3.0 0.00 0.35 0.00 98 1013.0
20260903082533 68 29 0.0 3.0 0.00 0.35 0.00 98 1013.0
20260903082333 68 23 1.0 3.0 0.00 0.35 0.00 98 1012.9
20260903082133 68 42 0.0 4.0 0.00 0.35 0.00 98 1012.8
20260903081932 68 2 0.0 4.0 0.00 0.35 0.00 98 1012.8
20260903081732 68 345 0.0 4.0 0.00 0.35 0.00 98 1012.9
20260903081532 69 10 0.0 4.0 0.00 0.35 0.00 98 1013.0
20260903081331 69 16 1.0 4.0 0.00 0.35 0.00 98 1013.0
20260903081131 69 38 1.0 4.0 0.00 0.35 0.00 98 1013.1
20260903080931 69 70 0.0 4.0 0.00 0.35 0.00 98 1013.0
20260903080731 69 68 0.0 2.0 0.00 0.35 0.00 98 1013.0
20260903080530 69 68 0.0 2.0 0.00 0.35 0.00 98 1013.0
20260903080330 69 68 0.0 2.0 0.00 0.35 0.00 98 1013.0
20260903080130 69 68 0.0 2.0 0.00 0.35 0.00 98 1012.9
20260903075929 69 68 0.0 2.0 0.00 0.35 0.00 98 1012.9
20260903075729 69 68 0.0 2.0 0.00 0.35 0.00 98 1012.9
20260903075529 69 69 0.0 2.0 0.00 0.35 0.00 98 1012.9
20260903075328 69 69 0.0 2.0 0.00 0.35 0.00 98 1013.0
20260903075128 69 69 0.0 3.0 0.00 0.35 0.00 98 1013.0
20260903074928 70 70 0.0 4.0 0.00 0.35 0.00 98 1012.9
20260903074727 70 73 0.0 4.0 0.00 0.35 0.00 98 1012.9
20260903074527 70 80 0.0 4.0 0.00 0.35 0.00 98 1012.9
20260903074327 70 52 1.0 4.0 0.00 0.35 0.00 98 1012.9
20260903074126 70 32 1.0 4.0 0.00 0.35 0.00 98 1012.9
20260903073926 70 32 0.0 3.0 0.00 0.35 0.00 98 1012.8
20260903073726 70 36 1.0 3.0 0.00 0.35 0.00 98 1012.9
20260903073525 70 30 1.0 3.0 0.00 0.35 0.00 98 1012.9
20260903073325 70 22 0.0 3.0 0.00 0.35 0.00 98 1012.8
20260903073125 70 19 0.0 2.0 0.00 0.35 0.00 98 1012.8
20260903072925 70 19 0.0 2.0 0.00 0.35 0.00 98 1012.8
20260903072724 70 19 0.0 2.0 0.00 0.35 0.00 98 1012.8
20260903072524 70 70 0.0 3.0 0.00 0.35 0.00 98 1012.8
20260903072324 70 112 0.0 4.0 0.00 0.35 0.00 98 1012.8
20260903072123 70 63 0.0 4.0 0.00 0.35 0.00 98 1012.8
20260903071923 70 20 0.0 4.0 0.00 0.35 0.00 98 1012.7
20260903071723 70 16 1.0 4.0 0.00 0.35 0.00 98 1012.8
20260903071522 70 7 0.0 2.0 0.00 0.35 0.00 98 1012.9
20260903071322 70 7 0.0 2.0 0.00 0.35 0.00 98 1012.9
20260903071122 70 357 0.0 2.0 0.00 0.35 0.00 98 1012.9
20260903070921 70 349 0.0 2.0 0.00 0.35 0.00 98 1012.9
20260903070721 70 73 0.0 2.0 0.00 0.35 0.00 98 1012.9
20260903070521 70 125 0.0 2.0 0.00 0.35 0.00 98 1012.9
20260903070320 70 125 0.0 2.0 0.00 0.35 0.00 98 1012.9
20260903070120 70 125 0.0 1.0 0.00 0.35 0.00 98 1012.9
20260903065920 70 126 0.0 3.0 0.00 0.35 0.00 98 1012.8
20260903065720 70 127 0.0 3.0 0.00 0.35 0.00 98 1012.8
20260903065519 70 128 0.0 3.0 0.00 0.35 0.00 98 1012.8
20260903065319 70 128 0.0 3.0 0.00 0.35 0.00 98 1012.8
20260903065119 70 65 1.0 3.0 0.00 0.35 0.00 98 1012.7
20260903064918 70 66 1.0 3.0 0.00 0.35 0.00 98 1012.7
20260903064718 70 115 0.0 2.0 0.00 0.35 0.00 98 1012.7
20260903064518 70 116 0.0 3.0 0.00 0.35 0.00 98 1012.7
20260903064317 70 136 0.0 4.0 0.00 0.35 0.00 98 1012.7
20260903064117 70 255 0.0 4.0 0.00 0.35 0.00 98 1012.7
20260903063917 70 262 0.0 4.0 0.00 0.35 0.00 98 1012.7
20260903063716 70 226 1.0 4.0 0.00 0.35 0.00 98 1012.8
20260903063516 70 238 1.0 4.0 0.00 0.35 0.00 98 1012.8
20260903063316 70 235 1.0 4.0 0.00 0.35 0.00 98 1012.7
20260903063116 70 232 1.0 4.0 0.00 0.35 0.00 98 1012.7
20260903062915 70 200 1.0 4.0 0.00 0.35 0.00 99 1012.8
20260903062715 70 130 1.0 4.0 0.00 0.35 0.00 99 1012.7
20260903062515 70 273 1.0 4.0 0.00 0.35 0.00 99 1012.7
20260903062314 70 309 1.0 4.0 0.00 0.35 0.00 99 1012.6
20260903062114 70 234 1.0 4.0 0.00 0.35 0.00 99 1012.7
20260903061914 70 248 1.0 4.0 0.00 0.35 0.00 99 1012.7
20260903061713 70 277 0.0 5.0 0.00 0.35 0.00 99 1012.7
20260903061513 70 212 1.0 5.0 0.00 0.35 0.00 99 1012.7
20260903061313 70 112 1.0 5.0 0.00 0.35 0.00 99 1012.7
20260903061112 70 221 2.0 5.0 0.00 0.35 0.00 99 1012.7
20260903060912 70 254 2.0 5.0 0.00 0.35 0.00 99 1012.7
20260903060712 70 240 2.0 5.0 0.00 0.35 0.00 99 1012.6
20260903060512 70 245 1.0 5.0 0.00 0.35 0.00 99 1012.7
20260903060311 70 234 1.0 5.0 0.00 0.35 0.00 99 1012.7
20260903060111 70 69 1.0 4.0 0.00 0.35 0.00 99 1012.6
20260903055911 70 183 1.0 4.0 0.00 0.35 0.00 99 1012.7
20260903003217 68 209 2.0 6.0 0.05 0.34 0.34 98 1012.9
20260903003016 68 174 2.0 6.0 0.05 0.34 0.34 98 1012.9
20260903002816 68 204 1.0 4.0 0.05 0.34 0.34 98 1012.9
20260903002616 68 239 1.0 4.0 0.05 0.34 0.34 97 1013.0
20260903002415 68 240 1.0 4.0 0.05 0.34 0.34 97 1012.8
20260903002215 68 235 0.0 3.0 0.05 0.34 0.34 97 1012.4
20260903002015 69 210 0.0 3.0 0.03 0.32 0.32 97 1012.2
20260903001815 68 298 0.0 3.0 0.00 0.29 0.29 97 1012.5
20260903001614 68 276 1.0 3.0 0.00 0.29 0.29 97 1012.3
20260903001414 68 239 1.0 3.0 0.00 0.29 0.29 97 1011.7
20260903001214 68 235 0.0 3.0 0.00 0.29 0.29 96 1011.9
20260903001013 68 215 1.0 4.0 0.00 0.29 0.29 96 1012.2
20260903000813 68 228 0.0 4.0 0.00 0.29 0.29 96 1012.5
20260903000613 68 249 0.0 4.0 0.00 0.29 0.29 96 1012.6
20260903000412 68 238 1.0 4.0 0.00 0.29 0.29 96 1012.6
20260903000212 68 224 1.0 3.0 0.00 0.29 0.29 96 1012.7
20260903000012 68 248 1.0 4.0 0.00 0.29 0.29 96 1012.7
20260902235811 68 266 0.0 4.0 0.00 0.29 0.29 96 1012.8
20260902235611 68 73 0.0 4.0 0.00 0.29 0.29 97 1012.8
20260902235411 68 194 1.0 4.0 0.01 0.29 0.29 97 1012.7
20260902235210 68 262 0.0 4.0 0.01 0.29 0.29 97 1012.7
20260902235010 68 250 0.0 3.0 0.01 0.29 0.29 97 1012.7
20260902234810 68 229 0.0 4.0 0.01 0.29 0.29 97 1012.6
20260902234610 68 237 1.0 4.0 0.02 0.29 0.29 97 1012.6
20260902234409 68 237 1.0 6.0 0.02 0.29 0.29 97 1012.5
20260902234209 68 224 1.0 6.0 0.02 0.29 0.29 97 1012.6
20260902234009 68 178 1.0 6.0 0.02 0.29 0.29 97 1012.6
20260902233808 68 201 1.0 6.0 0.02 0.29 0.29 97 1012.6
20260902233608 68 197 2.0 6.0 0.02 0.29 0.29 97 1012.6
20260902233408 68 217 2.0 5.0 0.02 0.29 0.29 98 1012.6
20260902233207 68 211 2.0 7.0 0.03 0.29 0.29 98 1012.6
20260902233007 68 205 1.0 7.0 0.03 0.29 0.29 98 1012.6
20260902232807 68 234 2.0 7.0 0.03 0.29 0.29 98 1012.8
20260902232606 68 232 2.0 7.0 0.03 0.29 0.29 98 1012.8
20260902232406 68 229 2.0 7.0 0.03 0.29 0.29 98 1013.0
20260902232206 68 220 2.0 7.0 0.04 0.29 0.29 98 1013.0
20260902232006 68 225 2.0 7.0 0.04 0.29 0.29 98 1013.1
20260902231805 68 190 2.0 7.0 0.04 0.29 0.29 98 1012.9
20260902231605 68 216 1.0 6.0 0.04 0.29 0.29 98 1012.9
20260902231405 69 217 1.0 9.0 0.06 0.29 0.29 98 1012.9
20260902231204 69 229 0.0 9.0 0.07 0.29 0.29 98 1012.9
20260902231004 69 211 1.0 9.0 0.09 0.29 0.29 98 1013.1
20260902230804 69 227 1.0 9.0 0.16 0.29 0.29 98 1013.1
20260902230603 69 223 2.0 9.0 0.22 0.29 0.29 98 1013.1
20260902230403 69 217 2.0 6.0 0.24 0.29 0.29 97 1012.9
20260902230203 69 198 1.0 6.0 0.24 0.29 0.29 97 1012.8
20260902230002 69 222 1.0 6.0 0.24 0.29 0.29 97 1013.0
20260902225802 69 221 2.0 6.0 0.24 0.29 0.29 97 1013.1
20260902225602 69 211 1.0 6.0 0.24 0.29 0.29 97 1013.3
20260902225401 70 192 1.0 5.0 0.23 0.28 0.28 97 1013.4
20260902225201 70 225 1.0 5.0 0.23 0.28 0.28 97 1013.5
20260902225001 70 227 1.0 5.0 0.23 0.28 0.28 97 1013.6
20260902224800 70 221 0.0 5.0 0.22 0.27 0.27 97 1013.7
20260902224600 70 150 0.0 3.0 0.22 0.27 0.27 97 1013.7
20260902224400 70 163 0.0 3.0 0.22 0.27 0.27 97 1013.7
20260902224200 70 91 0.0 4.0 0.22 0.27 0.27 96 1013.8
20260902223959 70 64 0.0 12.0 0.22 0.27 0.27 96 1013.8
20260902223759 70 104 0.0 12.0 0.22 0.27 0.27 96 1013.9
20260902223559 70 90 1.0 12.0 0.22 0.27 0.27 96 1013.8
20260902223358 70 360 1.0 12.0 0.21 0.26 0.26 95 1013.9
20260902223158 70 4 2.0 12.0 0.21 0.26 0.26 95 1014.1
20260902222958 70 60 2.0 12.0 0.21 0.26 0.26 95 1014.3
20260902222757 70 358 3.0 13.0 0.21 0.26 0.26 95 1014.5
20260902222557 70 49 3.0 13.0 0.21 0.26 0.26 94 1014.4
20260902222357 70 211 4.0 13.0 0.20 0.25 0.25 94 1014.3
20260902222156 70 96 4.0 13.0 0.20 0.25 0.25 93 1014.1
20260902221956 70 179 5.0 13.0 0.20 0.25 0.25 92 1014.1
20260902221555 71 122 5.0 29.0 0.19 0.24 0.24 91 1014.5
20260902221355 72 92 6.0 29.0 0.18 0.23 0.23 90 1014.1
20260902221155 74 88 8.0 29.0 0.16 0.21 0.21 86 1015.0
20260902220955 76 106 10.0 29.0 0.11 0.16 0.16 83 1015.7
20260902220754 79 40 7.0 29.0 0.04 0.09 0.09 83 1016.2
20260902220554 81 333 4.0 12.0 0.00 0.05 0.05 87 1016.0
20260902220354 81 251 3.0 8.0 0.00 0.05 0.05 87 1014.8
20260902220153 81 185 2.0 7.0 0.00 0.05 0.05 86 1014.3
20260902215953 81 62 1.0 4.0 0.00 0.05 0.05 86 1013.8
20260902215753 81 74 1.0 4.0 0.00 0.05 0.05 86 1013.5
20260902215552 81 105 1.0 4.0 0.00 0.05 0.05 85 1013.2
20260902215352 81 139 1.0 5.0 0.00 0.05 0.05 85 1013.0
20260902215152 81 162 1.0 5.0 0.00 0.05 0.05 85 1012.6
20260902214951 81 244 1.0 6.0 0.00 0.05 0.05 85 1012.2
20260902214751 81 264 1.0 7.0 0.00 0.05 0.05 84 1012.1
20260902214551 81 219 2.0 8.0 0.00 0.05 0.05 84 1011.7
20260902214350 81 237 3.0 8.0 0.00 0.05 0.05 83 1011.3
20260902214150 82 229 3.0 8.0 0.00 0.05 0.05 83 1011.1
20260902213950 82 208 3.0 8.0 0.00 0.05 0.05 82 1010.6
20260902213750 82 196 3.0 8.0 0.00 0.05 0.05 82 1010.6
20260902213549 82 181 3.0 7.0 0.00 0.05 0.05 82 1010.9
20260902213349 82 206 4.0 7.0 0.00 0.05 0.05 82 1010.9
20260902213149 82 212 3.0 7.0 0.00 0.05 0.05 82 1010.9
20260902212948 83 230 3.0 7.0 0.00 0.05 0.05 82 1011.2
20260902212748 83 224 3.0 7.0 0.00 0.05 0.05 82 1011.1
20260902212548 83 221 3.0 7.0 0.00 0.05 0.05 82 1011.1
20260902212347 83 234 3.0 7.0 0.00 0.05 0.05 82 1011.0
20260902212147 83 237 3.0 7.0 0.00 0.05 0.05 83 1011.0
20260902211947 83 234 3.0 7.0 0.00 0.05 0.05 83 1010.9
20260902211746 84 224 3.0 7.0 0.00 0.05 0.05 83 1011.0
20260902211546 84 234 3.0 10.0 0.00 0.05 0.05 82 1011.0
20260902211346 84 230 2.0 10.0 0.00 0.05 0.05 82 1011.0
20260902211145 84 235 3.0 10.0 0.00 0.05 0.05 82 1010.9
20260902210945 84 227 4.0 10.0 0.00 0.05 0.05 82 1010.8
20260902210745 84 217 5.0 10.0 0.00 0.05 0.05 82 1010.7
20260902210545 84 217 4.0 10.0 0.00 0.05 0.05 82 1010.7
20260902210344 85 228 3.0 8.0 0.00 0.05 0.05 83 1010.9
20260902210144 85 222 3.0 8.0 0.00 0.05 0.05 83 1011.0
20260902205944 85 240 3.0 8.0 0.00 0.05 0.05 84 1011.1
20260902205743 85 202 2.0 6.0 0.00 0.05 0.05 84 1011.1
20260902205543 85 198 2.0 7.0 0.00 0.05 0.05 83 1011.2
20260902205343 86 231 3.0 7.0 0.00 0.05 0.05 83 1011.2
20260902205142 86 222 3.0 9.0 0.00 0.05 0.05 82 1011.1
20260902204942 86 226 3.0 9.0 0.00 0.05 0.05 81 1011.1
20260902204742 86 233 2.0 9.0 0.00 0.05 0.05 81 1011.2
20260902204541 86 228 3.0 9.0 0.00 0.05 0.05 82 1011.3
20260902204341 86 201 4.0 9.0 0.00 0.05 0.05 82 1011.4
20260902204141 86 201 4.0 9.0 0.00 0.05 0.05 82 1011.5
20260902203940 86 226 2.0 8.0 0.00 0.05 0.05 82 1011.5
20260902203740 86 202 3.0 8.0 0.00 0.05 0.05 83 1011.5
20260902203540 86 218 3.0 9.0 0.00 0.05 0.05 83 1011.6
20260902203340 86 237 3.0 9.0 0.00 0.05 0.05 82 1011.7
20260902203139 86 228 3.0 10.0 0.00 0.05 0.05 82 1011.8
20260902202939 86 209 4.0 10.0 0.00 0.05 0.05 82 1011.7
20260902202739 86 208 4.0 10.0 0.00 0.05 0.05 82 1011.8
20260902202538 86 236 3.0 10.0 0.00 0.05 0.05 83 1011.8
20260902202338 86 236 5.0 10.0 0.00 0.05 0.05 83 1011.8
20260902202138 86 233 4.0 10.0 0.00 0.05 0.05 82 1011.9
20260902201937 86 227 4.0 7.0 0.00 0.05 0.05 82 1011.9
20260902201737 86 231 3.0 12.0 0.00 0.05 0.05 84 1011.8
20260902201537 86 221 3.0 12.0 0.00 0.05 0.05 84 1011.7
20260902201336 86 227 4.0 12.0 0.00 0.05 0.05 84 1011.8
20260902201136 86 213 5.0 12.0 0.00 0.05 0.05 84 1011.8
20260902200936 86 215 5.0 12.0 0.00 0.05 0.05 84 1011.9
20260902200735 86 213 4.0 10.0 0.00 0.05 0.05 84 1012.0
20260902200535 86 215 4.0 10.0 0.00 0.05 0.05 84 1012.2
20260902200335 85 208 3.0 10.0 0.00 0.05 0.05 85 1012.2
20260902200134 85 220 4.0 7.0 0.00 0.05 0.05 85 1012.3
20260902195934 85 225 4.0 7.0 0.00 0.05 0.05 86 1012.4
20260902195734 85 215 4.0 7.0 0.00 0.05 0.05 86 1012.5
20260902195534 84 216 3.0 7.0 0.00 0.05 0.05 86 1012.4
20260902195333 84 217 3.0 7.0 0.00 0.05 0.05 88 1012.4
20260902195133 83 223 2.0 7.0 0.00 0.05 0.05 88 1012.6
20260902194933 83 219 3.0 6.0 0.00 0.05 0.05 88 1012.7
20260902194732 83 220 3.0 6.0 0.00 0.05 0.05 89 1012.6
20260902194532 82 227 3.0 6.0 0.00 0.05 0.05 89 1012.7
20260902194332 82 222 3.0 6.0 0.00 0.05 0.05 89 1012.8
20260902194131 82 227 3.0 6.0 0.00 0.05 0.05 89 1012.8
20260902193931 82 221 3.0 6.0 0.00 0.05 0.05 89 1012.8
20260902193731 82 223 3.0 5.0 0.00 0.05 0.05 89 1012.9
20260902193530 82 243 2.0 5.0 0.00 0.05 0.05 89 1013.1
20260902193330 82 259 0.0 5.0 0.00 0.05 0.05 89 1013.2
20260902193130 82 252 1.0 5.0 0.00 0.05 0.05 89 1013.2
20260902192930 82 234 1.0 5.0 0.00 0.05 0.05 88 1013.2
20260902192729 82 237 1.0 5.0 0.00 0.05 0.05 88 1013.3
20260902192529 82 207 1.0 5.0 0.00 0.05 0.05 88 1013.4
20260902192329 82 194 1.0 5.0 0.00 0.05 0.05 88 1013.5
20260902192128 82 231 2.0 5.0 0.00 0.05 0.05 88 1013.5
20260902191928 82 238 0.0 5.0 0.00 0.05 0.05 88 1013.5
20260902191728 83 226 0.0 6.0 0.00 0.05 0.05 88 1013.5
20260902191527 83 223 1.0 6.0 0.00 0.05 0.05 88 1013.5
20260902191327 83 219 1.0 6.0 0.00 0.05 0.05 87 1013.6
20260902191127 83 228 1.0 6.0 0.00 0.05 0.05 87 1013.7
20260902190926 83 230 2.0 6.0 0.00 0.05 0.05 87 1013.6
20260902190726 83 215 1.0 4.0 0.00 0.05 0.05 86 1013.7
20260902190526 83 221 1.0 4.0 0.00 0.05 0.05 86 1013.6
20260902190326 83 216 2.0 4.0 0.00 0.05 0.05 86 1013.6
20260902190125 83 240 2.0 5.0 0.00 0.05 0.05 86 1013.5
20260902185925 84 247 1.0 5.0 0.00 0.05 0.05 86 1013.6
20260902185725 84 252 2.0 5.0 0.00 0.05 0.05 85 1013.6
20260902185524 84 240 2.0 5.0 0.00 0.05 0.05 85 1013.7
20260902185324 84 208 2.0 4.0 0.00 0.05 0.05 85 1013.9
20260902185124 84 226 2.0 5.0 0.00 0.05 0.05 85 1013.9
20260902184923 84 232 2.0 5.0 0.00 0.05 0.05 84 1013.9
20260902184723 84 168 1.0 5.0 0.00 0.05 0.05 84 1013.8
20260902184523 85 196 2.0 7.0 0.00 0.05 0.05 84 1013.8
20260902184322 85 208 2.0 7.0 0.00 0.05 0.05 83 1013.8
20260902184122 85 223 2.0 7.0 0.00 0.05 0.05 83 1013.8
20260902183922 85 216 3.0 7.0 0.00 0.05 0.05 83 1013.7
20260902183721 86 196 4.0 7.0 0.00 0.05 0.05 82 1013.7
20260902183521 86 215 2.0 7.0 0.00 0.05 0.05 82 1013.6
20260902183321 86 254 2.0 6.0 0.00 0.05 0.05 82 1013.6
20260902183121 86 229 2.0 6.0 0.00 0.05 0.05 81 1013.7
20260902182920 86 201 2.0 6.0 0.00 0.05 0.05 81 1013.8
20260902182720 87 208 3.0 6.0 0.00 0.05 0.05 80 1013.9